When you browse on this site, cookies collect data to enhance your experience and personalize the content and advertising you see.
Visit our Privacy Policy to learn more. By continuing to use the site, you agree to this use of cookies and data.
  • In Sweden
  • List of Countries
  • For 7 days
  • Water Temperature
  • Satellite Maps
  • Weather Map
  • Weather Widgets
  • user-avatar
    Login

    Hourly Weather Sydney

    Today, 23 March, Saturday

    Time Temperature Precipitation Wind Pressure Humidity
    00:00 +23°C° 0.2 mm 2 mps 761 mmHg 86%
    01:00 +21°C° 0.2 mm 2 mps 760 mmHg 89%
    02:00 +21°C° 0 mm 2 mps 760 mmHg 89%
    03:00 +22°C° 0 mm 1 mps 760 mmHg 90%
    04:00 +21°C° 0 mm 1 mps 760 mmHg 92%
    05:00 +21°C° 0 mm 1 mps 760 mmHg 91%
    06:00 +22°C° 0 mm 1 mps 760 mmHg 90%
    07:00 +22°C° 0 mm 1 mps 760 mmHg 89%
    08:00 +23°C° 0 mm 1 mps 760 mmHg 81%
    09:00 +25°C° 0 mm 1 mps 759 mmHg 72%
    10:00 +27°C° 0 mm 2 mps 759 mmHg 64%
    11:00 +29°C° 0 mm 2 mps 759 mmHg 59%
    12:00 +30°C° 0 mm 2 mps 758 mmHg 53%
    13:00 +32°C° 0 mm 2 mps 758 mmHg 48%
    14:00 +31°C° 0 mm 3 mps 757 mmHg 54%
    15:00 +30°C° 0 mm 3 mps 757 mmHg 60%
    16:00 +29°C° 0 mm 4 mps 757 mmHg 67%
    17:00 +28°C° 0 mm 4 mps 757 mmHg 71%
    18:00 +27°C° 0 mm 4 mps 757 mmHg 75%
    19:00 +26°C° 0 mm 4 mps 757 mmHg 79%
    20:00 +26°C° 0 mm 5 mps 757 mmHg 80%
    21:00 +26°C° 0 mm 5 mps 757 mmHg 80%
    22:00 +26°C° 0 mm 6 mps 757 mmHg 80%
    23:00 +26°C° 0 mm 5 mps 757 mmHg 81%

    Tomorrow, 24 March, Sunday

    Time Temperature Precipitation Wind Pressure Humidity
    00:00 +25°C° 0 mm 4 mps 757 mmHg 82%
    01:00 +25°C° 0 mm 4 mps 756 mmHg 83%
    02:00 +23°C° 0 mm 4 mps 756 mmHg 84%
    03:00 +23°C° 0 mm 4 mps 756 mmHg 85%
    04:00 +24°C° 0 mm 3 mps 756 mmHg 87%
    05:00 +24°C° 0 mm 3 mps 756 mmHg 85%
    06:00 +24°C° 0 mm 2 mps 756 mmHg 83%
    07:00 +24°C° 0 mm 2 mps 756 mmHg 80%
    08:00 +26°C° 0 mm 2 mps 757 mmHg 70%
    09:00 +28°C° 0 mm 2 mps 757 mmHg 59%
    10:00 +30°C° 0 mm 2 mps 757 mmHg 48%
    11:00 +31°C° 0 mm 3 mps 757 mmHg 44%
    12:00 +33°C° 0 mm 3 mps 757 mmHg 41%
    13:00 +34°C° 0 mm 4 mps 756 mmHg 37%
    14:00 +34°C° 0 mm 4 mps 756 mmHg 41%
    15:00 +33°C° 0 mm 4 mps 756 mmHg 45%
    16:00 +33°C° 0 mm 5 mps 755 mmHg 50%
    17:00 +30°C° 0 mm 4 mps 756 mmHg 56%
    18:00 +29°C° 0 mm 3 mps 757 mmHg 63%
    19:00 +28°C° 0 mm 2 mps 757 mmHg 69%
    20:00 +27°C° 0 mm 2 mps 758 mmHg 72%
    21:00 +27°C° 0 mm 1 mps 758 mmHg 74%
    22:00 +26°C° 0 mm 1 mps 758 mmHg 77%
    23:00 +26°C° 0 mm 1 mps 758 mmHg 79%

    Day after tomorrow, 25 March, Monday

    Time Temperature Precipitation Wind Pressure Humidity
    00:00 +26°C° 0 mm 1 mps 757 mmHg 81%
    01:00 +25°C° 0 mm 1 mps 757 mmHg 83%
    02:00 +25°C° 0 mm 1 mps 757 mmHg 83%
    03:00 +25°C° 0 mm 2 mps 756 mmHg 82%
    04:00 +25°C° 0 mm 2 mps 756 mmHg 81%
    05:00 +25°C° 0.1 mm 2 mps 756 mmHg 81%
    06:00 +25°C° 0.1 mm 1 mps 756 mmHg 81%
    07:00 +24°C° 0.1 mm 1 mps 756 mmHg 81%
    08:00 +25°C° 0.3 mm 1 mps 756 mmHg 79%
    09:00 +26°C° 0.3 mm 2 mps 756 mmHg 77%
    10:00 +26°C° 0.3 mm 2 mps 756 mmHg 74%
    11:00 +28°C° 0.1 mm 4 mps 756 mmHg 67%
    12:00 +29°C° 0.1 mm 6 mps 756 mmHg 59%
    13:00 +32°C° 0.1 mm 8 mps 756 mmHg 52%
    14:00 +29°C° 0.9 mm 7 mps 756 mmHg 59%
    15:00 +28°C° 0.9 mm 7 mps 756 mmHg 67%
    16:00 +26°C° 0.9 mm 6 mps 756 mmHg 75%
    17:00 +26°C° 0.3 mm 5 mps 756 mmHg 74%
    18:00 +26°C° 0.3 mm 5 mps 757 mmHg 74%
    19:00 +25°C° 0.3 mm 5 mps 757 mmHg 74%
    20:00 +25°C° 0 mm 5 mps 758 mmHg 75%
    21:00 +23°C° 0 mm 5 mps 758 mmHg 75%
    22:00 +23°C° 0 mm 5 mps 759 mmHg 76%
    23:00 +22°C° 0.1 mm 5 mps 759 mmHg 72%

    26 March, Tuesday

    Time Temperature Precipitation Wind Pressure Humidity
    00:00 +21°C° 0.1 mm 6 mps 759 mmHg 69%
    01:00 +21°C° 0.1 mm 6 mps 760 mmHg 65%
    02:00 +20°C° 0.2 mm 6 mps 760 mmHg 65%
    03:00 +19°C° 0.2 mm 6 mps 760 mmHg 66%
    04:00 +19°C° 0.2 mm 5 mps 760 mmHg 66%
    05:00 +17°C° 0.2 mm 6 mps 761 mmHg 62%
    06:00 +17°C° 0.2 mm 6 mps 762 mmHg 58%
    07:00 +17°C° 0.2 mm 6 mps 763 mmHg 54%
    08:00 +19°C° 0 mm 6 mps 763 mmHg 48%
    09:00 +20°C° 0 mm 6 mps 763 mmHg 42%
    10:00 +21°C° 0 mm 6 mps 764 mmHg 35%
    11:00 +22°C° 0 mm 5 mps 764 mmHg 31%
    12:00 +25°C° 0 mm 5 mps 763 mmHg 27%
    13:00 +26°C° 0 mm 5 mps 763 mmHg 23%
    14:00 +25°C° 0 mm 5 mps 763 mmHg 28%
    15:00 +24°C° 0 mm 6 mps 763 mmHg 33%
    16:00 +23°C° 0 mm 6 mps 763 mmHg 38%
    17:00 +22°C° 0 mm 6 mps 764 mmHg 44%
    18:00 +21°C° 0 mm 6 mps 765 mmHg 49%
    19:00 +20°C° 0 mm 6 mps 766 mmHg 55%
    20:00 +20°C° 0 mm 5 mps 766 mmHg 55%
    21:00 +20°C° 0 mm 5 mps 767 mmHg 56%
    22:00 +19°C° 0 mm 4 mps 768 mmHg 56%
    23:00 +19°C° 0 mm 4 mps 768 mmHg 57%

    27 March, Wednesday

    Time Temperature Precipitation Wind Pressure Humidity
    00:00 +19°C° 0 mm 3 mps 768 mmHg 58%
    01:00 +19°C° 0 mm 3 mps 768 mmHg 59%
    02:00 +19°C° 0 mm 3 mps 767 mmHg 59%
    03:00 +19°C° 0 mm 3 mps 767 mmHg 59%
    04:00 +19°C° 0 mm 3 mps 767 mmHg 58%
    05:00 +19°C° 0 mm 3 mps 768 mmHg 60%
    06:00 +19°C° 0 mm 3 mps 768 mmHg 62%
    07:00 +19°C° 0 mm 3 mps 768 mmHg 63%
    08:00 +20°C° 0 mm 3 mps 769 mmHg 59%
    09:00 +22°C° 0 mm 3 mps 769 mmHg 55%
    10:00 +24°C° 0 mm 3 mps 769 mmHg 51%
    11:00 +24°C° 0 mm 3 mps 768 mmHg 52%
    12:00 +24°C° 0 mm 3 mps 768 mmHg 52%
    13:00 +25°C° 0 mm 4 mps 767 mmHg 53%
    14:00 +25°C° 0 mm 4 mps 767 mmHg 55%
    15:00 +25°C° 0 mm 4 mps 767 mmHg 57%
    16:00 +25°C° 0 mm 4 mps 767 mmHg 59%
    17:00 +23°C° 0.1 mm 4 mps 767 mmHg 63%
    18:00 +22°C° 0.1 mm 4 mps 767 mmHg 67%
    19:00 +22°C° 0.1 mm 4 mps 768 mmHg 72%
    20:00 +22°C° 0.1 mm 3 mps 768 mmHg 72%
    21:00 +22°C° 0.1 mm 3 mps 768 mmHg 73%
    22:00 +22°C° 0.1 mm 3 mps 768 mmHg 74%
    23:00 +21°C° 0.2 mm 3 mps 767 mmHg 75%

    28 March, Thursday

    Time Temperature Precipitation Wind Pressure Humidity
    00:00 +21°C° 0.2 mm 3 mps 767 mmHg 77%
    01:00 +21°C° 0.2 mm 3 mps 766 mmHg 78%
    02:00 +21°C° 0.3 mm 3 mps 766 mmHg 80%
    03:00 +21°C° 0.3 mm 2 mps 766 mmHg 82%
    04:00 +20°C° 0.3 mm 2 mps 766 mmHg 84%
    05:00 +20°C° 0.1 mm 2 mps 766 mmHg 84%
    06:00 +20°C° 0.1 mm 2 mps 766 mmHg 85%
    07:00 +20°C° 0.1 mm 2 mps 766 mmHg 85%
    08:00 +23°C° 0.1 mm 1 mps 766 mmHg 77%
    09:00 +25°C° 0.1 mm 1 mps 766 mmHg 69%
    10:00 +26°C° 0.1 mm 1 mps 766 mmHg 60%
    11:00 +27°C° 0.1 mm 2 mps 765 mmHg 58%
    12:00 +27°C° 0.1 mm 3 mps 764 mmHg 56%
    13:00 +28°C° 0.1 mm 4 mps 764 mmHg 54%
    14:00 +27°C° 0 mm 4 mps 763 mmHg 56%
    15:00 +27°C° 0 mm 5 mps 763 mmHg 58%
    16:00 +27°C° 0 mm 5 mps 762 mmHg 60%
    17:00 +26°C° 0 mm 5 mps 762 mmHg 64%
    18:00 +25°C° 0 mm 5 mps 763 mmHg 67%
    19:00 +23°C° 0 mm 5 mps 763 mmHg 71%
    20:00 +23°C° 0 mm 4 mps 763 mmHg 74%
    21:00 +23°C° 0 mm 4 mps 763 mmHg 76%
    22:00 +23°C° 0 mm 4 mps 763 mmHg 79%
    23:00 +22°C° 0 mm 4 mps 762 mmHg 81%
    Show more